EW7070 Weather Reports


time (UTC)temp
C
wind
direction
speed
KPH
gust
KPH
rain 1hr
cm
rain 24hr
cm
rain mn
cm
humidity
%
barometer
mb
20260901112731 16 259 3.2 12.9 0.03 0.13 0.05 98 1012.9
20260901111934 16 270 3.2 8.0 0.03 0.13 0.05 98 1012.8
20260901111429 16 252 1.6 8.0 0.03 0.13 0.05 99 1012.5
20260901110906 16 224 0.0 4.8 0.03 0.13 0.05 98 1012.5
20260901110344 16 233 1.6 4.8 0.03 0.13 0.05 98 1012.4
20260901105832 16 229 1.6 6.4 0.03 0.13 0.05 98 1012.3
20260901105547 16 224 1.6 6.4 0.03 0.13 0.05 98 1012.2
20260901105432 16 255 3.2 6.4 0.03 0.13 0.05 99 1012.1
20260901104315 16 259 3.2 6.4 0.00 0.10 0.03 99 1012.0
20260901103815 16 264 1.6 6.4 0.00 0.10 0.03 99 1011.8
20260901103313 16 239 1.6 6.4 0.00 0.10 0.03 99 1011.8
20260901103037 16 284 0.0 1.6 0.00 0.10 0.03 98 1011.5
20260901102244 16 284 0.0 1.6 0.00 0.10 0.03 99 1011.4
20260901101744 16 284 0.0 1.6 0.00 0.10 0.03 99 1011.5
20260901101240 16 284 0.0 1.6 0.00 0.10 0.03 99 1011.2
20260901100725 16 284 0.0 1.6 0.00 0.10 0.03 99 1011.2
20260901100718 16 284 0.0 1.6 0.00 0.10 0.03 99 1011.2
20260901095928 16 268 0.0 0.0 0.00 0.10 0.03 98 1011.2
20260901095156 16 268 0.0 0.0 0.00 0.10 0.03 98 1011.1
20260901094648 16 268 0.0 1.6 0.00 0.10 0.03 98 1011.1
20260901094640 16 268 0.0 0.0 0.00 0.10 0.03 98 1011.1
20260901093901 16 268 0.0 1.6 0.00 0.10 0.03 98 1011.2
20260901093101 16 268 0.0 3.2 0.00 0.10 0.03 98 1011.1
20260901092533 16 279 1.6 3.2 0.00 0.10 0.03 98 1011.0
20260901092033 16 264 0.0 3.2 0.00 0.10 0.03 98 1010.9
20260901091526 16 239 0.0 3.2 0.00 0.10 0.03 98 1010.7
20260901091015 16 239 0.0 3.2 0.00 0.10 0.03 98 1010.7
20260901090451 16 261 0.0 1.6 0.03 0.10 0.03 98 1010.6
20260901085951 16 261 0.0 1.6 0.03 0.10 0.03 98 1010.5
20260901085422 16 261 0.0 1.6 0.03 0.10 0.03 98 1010.4
20260901085145 16 261 0.0 3.2 0.03 0.10 0.03 98 1010.5
20260901084415 16 207 0.0 4.8 0.03 0.10 0.03 98 1010.6
20260901083856 16 255 1.6 4.8 0.03 0.10 0.03 98 1010.4
20260901083354 16 237 1.6 4.8 0.03 0.10 0.03 98 1010.5
20260901082857 16 260 1.6 4.8 0.03 0.10 0.03 98 1010.4
20260901082356 16 257 0.0 3.2 0.03 0.10 0.03 98 1010.4
20260901081851 16 244 0.0 0.0 0.03 0.10 0.03 98 1010.4
20260901081353 16 261 0.0 0.0 0.03 0.10 0.03 98 1010.1
20260901081109 16 246 0.0 0.0 0.03 0.10 0.03 98 1010.1
20260901080324 16 270 0.0 0.0 0.00 0.08 0.00 98 1010.1
20260901075818 16 262 0.0 0.0 0.00 0.08 0.00 98 1010.1
20260901075320 16 262 0.0 0.0 0.00 0.08 0.00 98 1010.0
20260901074806 16 258 0.0 0.0 0.00 0.08 0.00 98 1009.8
20260901074636 16 256 0.0 0.0 0.00 0.08 0.00 98 1009.6
20260901074530 16 251 0.0 0.0 0.00 0.08 0.00 98 1009.4
20260901073246 16 305 0.0 0.0 0.00 0.08 0.00 98 1009.3
20260901072747 16 305 0.0 0.0 0.00 0.08 0.00 98 1009.2
20260901072245 16 305 0.0 0.0 0.00 0.08 0.00 98 1009.0
20260901072014 16 305 0.0 0.0 0.00 0.08 0.00 98 1009.0
20260901071226 16 305 0.0 0.0 0.00 0.08 0.00 98 1009.2
20260901070725 16 305 0.0 0.0 0.00 0.08 0.00 98 1009.3
20260901070219 16 305 0.0 0.0 0.00 0.08 0.00 98 1009.3
20260901065719 16 305 0.0 0.0 0.00 0.08 0.00 98 1009.5
20260901065451 16 305 0.0 0.0 0.00 0.08 0.00 98 1009.5
20260901064716 16 249 0.0 0.0 0.00 0.08 0.00 98 1009.5
20260901064212 16 249 0.0 0.0 0.00 0.08 0.00 98 1009.6
20260901063711 16 228 0.0 0.0 0.00 0.08 0.00 98 1009.6
20260901063435 16 208 0.0 0.0 0.00 0.08 0.00 98 1009.6
20260901062649 16 197 0.0 0.0 0.00 0.08 0.00 98 1009.7
20260901062354 16 197 0.0 0.0 0.00 0.08 0.00 98 1009.7
20260901061616 16 187 0.0 0.0 0.00 0.08 0.00 98 1009.7
20260901061115 16 187 0.0 1.6 0.00 0.08 0.00 98 1009.7
20260901060611 16 106 0.0 1.6 0.00 0.08 0.00 98 1009.6
20260901060046 16 99 0.0 3.2 0.00 0.08 0.00 98 1009.5
20260901055546 16 106 0.0 4.8 0.00 0.08 0.00 98 1009.7
20260901055034 16 101 0.0 4.8 0.00 0.08 0.00 98 1009.7
20260901055026 16 139 0.0 4.8 0.00 0.08 0.00 98 1009.8
20260901054007 16 143 0.0 4.8 0.00 0.08 0.00 98 1009.7
20260901053504 16 177 0.0 1.6 0.00 0.08 0.00 98 1009.8
20260901053004 16 171 0.0 1.6 0.00 0.08 0.00 98 1009.9
20260901052458 16 118 0.0 1.6 0.00 0.08 0.00 98 1010.0
20260901051957 16 112 0.0 0.0 0.00 0.08 0.00 98 1010.1
20260901051431 16 158 0.0 0.0 0.00 0.08 0.00 98 1010.1
20260901050915 17 246 0.0 0.0 0.00 0.08 0.00 98 1010.2
20260901050402 17 246 0.0 0.0 0.00 0.08 0.00 98 1010.5
20260901045848 17 246 0.0 0.0 0.00 0.08 0.00 98 1010.3
20260901045347 17 246 0.0 0.0 0.00 0.08 0.00 98 1010.3
20260901044817 17 246 0.0 0.0 0.00 0.08 0.00 98 1010.4
20260901044315 17 246 0.0 0.0 0.00 0.08 0.00 98 1010.6
20260901043816 17 246 0.0 0.0 0.00 0.08 0.00 98 1010.8
20260901043315 17 246 1.6 6.4 0.00 0.08 0.00 98 1010.8
20260901042802 17 246 1.6 6.4 0.00 0.08 0.00 98 1010.9
20260901042519 17 245 1.6 6.4 0.00 0.08 0.00 98 1011.0
20260901041749 17 258 1.6 6.4 0.00 0.08 0.00 98 1011.1
20260901041251 17 288 1.6 4.8 0.00 0.08 0.00 98 1011.0
20260901041244 17 294 1.6 4.8 0.00 0.08 0.00 98 1011.0
20260901040248 17 258 0.0 1.6 0.00 0.08 0.00 98 1011.0
20260901040241 17 288 0.0 4.8 0.00 0.08 0.00 98 1011.1
20260901035459 17 270 0.0 3.2 0.00 0.08 0.00 98 1011.0
20260901034728 17 257 0.0 3.2 0.00 0.08 0.00 98 1010.8
20260901034458 17 295 0.0 3.2 0.00 0.08 0.00 97 1010.8
20260901033716 17 267 1.6 4.8 0.00 0.08 0.00 97 1010.6
20260901033427 17 267 1.6 4.8 0.00 0.08 0.00 97 1010.5
20260901032658 17 260 1.6 6.4 0.00 0.08 0.00 97 1010.6
20260901032147 17 231 1.6 4.8 0.00 0.08 0.00 97 1010.7
20260901031643 17 296 1.6 9.7 0.00 0.08 0.00 97 1010.8
20260901031132 17 285 1.6 8.0 0.00 0.08 0.00 97 1010.9
20260901030838 17 260 3.2 9.7 0.00 0.08 0.00 97 1010.6
20260901030042 17 274 3.2 9.7 0.00 0.08 0.00 97 1010.7
20260901025536 17 271 0.0 3.2 0.00 0.08 0.08 97 1010.5
20260901025008 17 276 0.0 1.6 0.00 0.08 0.08 97 1010.1
20260901024459 17 276 0.0 1.6 0.00 0.08 0.08 97 1010.4
20260901023949 17 276 0.0 3.2 0.00 0.08 0.08 97 1010.2
20260901023436 17 276 0.0 1.6 0.00 0.08 0.08 97 1010.2
20260901022910 17 187 0.0 6.4 0.00 0.08 0.08 97 1010.0
20260901022408 17 213 1.6 6.4 0.00 0.08 0.08 97 1009.7
20260901021857 17 221 1.6 6.4 0.00 0.08 0.08 97 1009.7
20260901021355 17 210 1.6 4.8 0.00 0.08 0.08 97 1009.5
20260901020853 17 68 1.6 4.8 0.00 0.08 0.08 97 1009.8
20260901020350 17 208 1.6 4.8 0.00 0.08 0.08 97 1009.5
20260901015820 17 124 1.6 4.8 0.00 0.08 0.08 97 1009.9
20260901015310 17 177 0.0 3.2 0.00 0.08 0.08 97 1010.0
20260901014745 17 105 0.0 0.0 0.00 0.08 0.08 97 1010.6
20260901014243 17 227 0.0 0.0 0.00 0.08 0.08 97 1010.9
20260901013713 17 229 0.0 0.0 0.00 0.08 0.08 97 1010.9
20260901013421 17 216 0.0 0.0 0.00 0.08 0.08 97 1011.1
20260901013143 17 197 0.0 0.0 0.00 0.08 0.08 97 1011.1
20260901012137 17 268 0.0 0.0 0.00 0.08 0.08 97 1011.3
20260901011636 17 251 0.0 0.0 0.00 0.08 0.08 98 1011.1
20260901011109 17 182 0.0 0.0 0.00 0.08 0.08 98 1010.9
20260901010558 17 244 0.0 0.0 0.00 0.08 0.08 98 1011.2
20260901010046 17 245 0.0 0.0 0.00 0.08 0.08 98 1011.0
20260901005548 17 266 1.6 3.2 0.00 0.08 0.08 98 1011.2
20260901005019 17 246 1.6 6.4 0.00 0.08 0.08 98 1011.1
20260901004515 17 275 0.0 4.8 0.00 0.08 0.08 98 1011.1
20260901004012 17 271 0.0 3.2 0.00 0.08 0.08 98 1011.0
20260901003444 17 271 0.0 3.2 0.00 0.08 0.08 98 1010.9
20260901002936 17 271 0.0 4.8 0.00 0.08 0.08 98 1010.9
20260901002421 17 271 1.6 4.8 0.00 0.08 0.08 97 1011.0
20260901001922 17 271 1.6 4.8 0.00 0.08 0.08 97 1011.2
20260901001650 17 262 1.6 4.8 0.00 0.08 0.08 97 1011.1
20260901000916 17 274 1.6 4.8 0.00 0.08 0.08 97 1011.0
20260901000350 17 268 0.0 3.2 0.00 0.08 0.08 97 1010.9
20260831235821 17 334 0.0 1.6 0.00 0.08 0.08 97 1010.6
20260831235254 17 334 0.0 1.6 0.00 0.08 0.08 97 1010.3
20260831234729 17 334 0.0 1.6 0.00 0.08 0.08 97 1010.4
20260831234158 17 334 0.0 4.8 0.00 0.13 0.08 97 1010.4
20260831233631 17 334 1.6 4.8 0.00 0.15 0.08 97 1010.5
20260831233106 17 302 1.6 3.2 0.00 0.15 0.08 97 1010.8
20260831232607 17 239 0.0 3.2 0.00 0.15 0.08 97 1010.2
20260831232105 17 317 0.0 3.2 0.00 0.15 0.08 97 1010.4
20260831231602 17 317 0.0 3.2 0.00 0.15 0.08 97 1010.2
20260831231103 17 352 1.6 3.2 0.00 0.15 0.08 97 1010.1
20260831230602 17 66 1.6 3.2 0.00 0.15 0.08 97 1009.5
20260831230055 17 265 0.0 1.6 0.00 0.15 0.08 97 1009.6
20260831225758 17 265 0.0 3.2 0.00 0.15 0.08 97 1009.8
20260831225027 17 265 0.0 3.2 0.00 0.15 0.08 97 1010.0
20260831224519 18 296 0.0 1.6 0.00 0.15 0.08 97 1009.6
20260831224012 17 296 0.0 1.6 0.00 0.15 0.08 97 1009.5
20260831223445 18 296 0.0 0.0 0.00 0.18 0.08 97 1009.4
20260831223151 18 296 0.0 1.6 0.00 0.18 0.08 97 1009.6
20260831222636 17 296 0.0 3.2 0.00 0.18 0.08 97 1009.6
20260831221906 17 283 0.0 1.6 0.00 0.18 0.08 97 1009.4
20260831221405 17 197 0.0 3.2 0.00 0.18 0.08 97 1009.4
20260831220903 18 270 0.0 3.2 0.00 0.18 0.08 97 1009.5
20260831220337 18 311 0.0 3.2 0.00 0.18 0.08 96 1009.4
20260831215830 18 311 0.0 1.6 0.00 0.18 0.08 96 1009.2
20260831215559 18 311 0.0 3.2 0.00 0.18 0.08 96 1009.3
20260831214802 18 318 0.0 4.8 0.00 0.18 0.08 96 1009.4
20260831214237 18 348 0.0 4.8 0.00 0.18 0.08 96 1009.3
20260831213732 18 253 0.0 4.8 0.00 0.18 0.08 96 1008.9
20260831213221 18 286 1.6 4.8 0.00 0.18 0.08 96 1008.8
20260831212720 18 286 0.0 4.8 0.00 0.18 0.08 96 1009.0
20260831212155 18 260 0.0 6.4 0.00 0.18 0.08 96 1008.7
20260831211626 18 244 1.6 6.4 0.00 0.18 0.08 96 1008.4
20260831211125 18 271 3.2 6.4 0.00 0.18 0.08 96 1008.4
20260831210616 18 268 3.2 6.4 0.00 0.18 0.08 96 1008.5
20260831210115 18 269 3.2 4.8 0.00 0.18 0.08 95 1008.4
20260831205549 18 287 4.8 9.7 0.00 0.18 0.08 95 1008.1
20260831205249 18 256 4.8 9.7 0.00 0.18 0.08 95 1008.1
20260831204452 18 259 4.8 9.7 0.00 0.18 0.08 95 1007.7
20260831203924 18 248 3.2 12.9 0.00 0.18 0.08 95 1007.5
20260831203420 18 282 4.8 12.9 0.00 0.18 0.08 95 1007.1
20260831202912 18 249 6.4 12.9 0.00 0.18 0.08 95 1006.7
20260831202343 18 283 3.2 12.9 0.00 0.18 0.08 95 1006.7
20260831201841 18 263 3.2 6.4 0.00 0.18 0.08 95 1006.5
20260831201320 18 320 3.2 9.7 0.00 0.18 0.08 95 1006.1
20260831200706 18 206 3.2 9.7 0.00 0.18 0.08 95 1005.7
20260831200206 18 237 4.8 22.5 0.00 0.18 0.08 94 1005.6
20260831195659 18 203 6.4 22.5 0.00 0.18 0.08 95 1005.5
20260831195155 18 137 11.3 22.5 0.00 0.18 0.08 95 1005.2
20260831194653 17 112 12.9 22.5 0.00 0.18 0.08 95 1005.5
20260831194142 17 103 11.3 19.3 0.00 0.18 0.08 95 1005.8
20260831193642 17 82 11.3 17.7 0.00 0.18 0.08 95 1006.7
20260831193134 17 120 11.3 19.3 0.00 0.18 0.08 96 1007.6
20260831192632 17 90 9.7 19.3 0.00 0.18 0.08 96 1007.8
20260831192133 17 60 6.4 11.3 0.03 0.18 0.08 96 1008.5
20260831191614 17 79 4.8 11.3 0.03 0.18 0.08 96 1009.0
20260831191345 18 103 3.2 6.4 0.03 0.18 0.08 96 1009.3
20260831190613 18 103 3.2 6.4 0.03 0.18 0.08 96 1009.5
20260831190050 18 73 1.6 6.4 0.03 0.18 0.08 96 1009.6
20260831185550 18 15 3.2 6.4 0.03 0.18 0.08 96 1009.7
20260831185021 18 351 4.8 8.0 0.03 0.18 0.08 96 1009.8
20260831184453 18 353 3.2 8.0 0.03 0.18 0.08 96 1009.8
20260831183927 18 355 3.2 8.0 0.05 0.18 0.08 96 1009.8
20260831183400 18 324 3.2 9.7 0.05 0.18 0.08 96 1009.9
20260831182830 18 344 3.2 9.7 0.05 0.18 0.08 96 1010.1
20260831182327 18 295 3.2 9.7 0.03 0.15 0.08 96 1010.1
20260831181800 18 332 3.2 8.0 0.03 0.15 0.05 96 1010.2
20260831181300 18 309 3.2 6.4 0.03 0.15 0.05 96 1010.3
20260831180758 18 310 1.6 9.7 0.03 0.15 0.05 95 1010.1
20260831180529 18 351 1.6 9.7 0.03 0.15 0.05 95 1010.0
20260831175800 18 16 4.8 11.3 0.03 0.15 0.05 95 1010.0
20260831175240 18 3 4.8 11.3 0.03 0.15 0.05 95 1009.9
20260831174716 18 332 4.8 11.3 0.03 0.15 0.05 95 1009.8
20260831174207 18 281 4.8 11.3 0.00 0.13 0.03 95 1009.7
20260831173140 18 324 3.2 8.0 0.03 0.13 0.03 94 1009.4
20260831172638 18 313 1.6 6.4 0.03 0.13 0.03 94 1009.3
20260831172135 18 303 0.0 3.2 0.03 0.13 0.03 94 1009.1
20260831171617 18 303 0.0 3.2 0.03 0.13 0.03 93 1008.9
20260831171112 18 303 0.0 1.6 0.03 0.13 0.03 93 1009.0
20260831170833 18 303 1.6 4.8 0.03 0.13 0.03 94 1009.1
20260831170039 18 303 3.2 4.8 0.03 0.13 0.03 94 1009.2
20260831165750 18 270 3.2 4.8 0.03 0.13 0.03 93 1009.4
20260831165015 18 298 3.2 6.4 0.03 0.13 0.03 92 1009.5
20260831164745 18 353 1.6 6.4 0.03 0.13 0.03 92 1009.4
20260831163953 18 286 0.0 3.2 0.00 0.10 0.00 92 1009.5
20260831163450 18 249 1.6 4.8 0.00 0.10 0.00 92 1009.6
20260831162947 18 262 3.2 4.8 0.00 0.10 0.00 92 1009.6
20260831162447 18 303 1.6 4.8 0.00 0.10 0.00 92 1009.4
20260831161947 18 293 0.0 1.6 0.00 0.10 0.00 91 1009.5
20260831161942 18 293 0.0 3.2 0.00 0.10 0.00 90 1009.6
20260831161152 18 293 0.0 3.2 0.00 0.10 0.00 90 1009.5
20260831160422 18 218 0.0 0.0 0.00 0.10 0.00 90 1009.3
20260831155922 18 218 0.0 3.2 0.00 0.10 0.00 90 1009.4
20260831155353 18 223 0.0 3.2 0.00 0.10 0.00 90 1009.5
20260831154828 18 249 0.0 0.0 0.00 0.10 0.00 90 1009.3
20260831154320 18 249 0.0 3.2 0.00 0.10 0.00 90 1009.4
20260831153818 18 249 0.0 3.2 0.00 0.10 0.00 90 1009.5
20260831153319 18 249 1.6 3.2 0.00 0.10 0.00 90 1009.6
20260831153311 18 249 1.6 4.8 0.00 0.10 0.00 89 1009.5
20260831152537 18 134 3.2 9.7 0.00 0.10 0.00 89 1009.3
20260831152027 18 197 4.8 11.3 0.00 0.10 0.00 90 1009.3
20260831151232 18 93 3.2 9.7 0.00 0.10 0.00 90 1008.9
20260831150728 18 162 3.2 6.4 0.00 0.10 0.00 91 1008.8
20260831150210 18 100 4.8 8.0 0.00 0.10 0.00 90 1009.1
20260831145708 18 110 3.2 8.0 0.00 0.10 0.00 91 1009.5
20260831145438 18 109 3.2 6.4 0.00 0.10 0.00 90 1009.4
20260831144937 18 120 3.2 4.8 0.00 0.10 0.00 90 1009.6
20260831144139 18 137 3.2 8.0 0.00 0.10 0.00 90 1009.9
20260831144133 18 147 3.2 8.0 0.00 0.10 0.00 89 1010.2
20260831143113 18 132 3.2 9.7 0.00 0.10 0.00 90 1010.5
20260831142611 18 170 3.2 9.7 0.00 0.10 0.00 90 1010.5
20260831142109 18 164 4.8 16.1 0.00 0.10 0.00 89 1010.6
20260831141608 18 151 4.8 16.1 0.00 0.10 0.00 90 1010.3
20260831141108 18 133 6.4 12.9 0.00 0.10 0.00 90 1010.0
20260831140602 18 101 6.4 16.1 0.00 0.10 0.00 89 1009.8
20260831140057 18 114 6.4 16.1 0.00 0.10 0.00 89 1010.1
20260831135554 18 91 3.2 12.9 0.00 0.10 0.00 90 1010.2
20260831135049 18 139 1.6 8.0 0.00 0.10 0.00 89 1010.6
20260831135042 18 160 3.2 8.0 0.00 0.10 0.00 90 1010.3
20260831134013 18 162 1.6 6.4 0.00 0.10 0.00 90 1010.9
20260831133447 18 177 1.6 6.4 0.00 0.10 0.00 90 1011.0
20260831133148 18 131 1.6 6.4 0.00 0.10 0.00 90 1010.8
20260831132426 18 182 1.6 6.4 0.00 0.10 0.00 91 1010.6
20260831132417 18 119 1.6 6.4 0.00 0.10 0.00 91 1010.7
20260831131415 18 93 1.6 6.4 0.00 0.10 0.00 91 1010.6
20260831130914 18 113 1.6 6.4 0.00 0.10 0.00 91 1010.4
20260831130352 18 111 1.6 6.4 0.00 0.10 0.00 91 1010.5
20260831125835 18 121 3.2 6.4 0.00 0.10 0.00 91 1010.6
20260831125337 18 138 1.6 8.0 0.00 0.10 0.00 92 1010.9
20260831124809 17 106 1.6 8.0 0.00 0.10 0.00 92 1011.1
20260831124259 17 118 0.0 0.0 0.00 0.10 0.00 93 1011.2
20260831123756 17 147 0.0 0.0 0.00 0.10 0.00 94 1011.4
20260831123524 17 141 0.0 0.0 0.00 0.10 0.00 95 1011.1
20260831122752 17 158 0.0 0.0 0.00 0.10 0.00 95 1010.9
20260831122223 17 120 0.0 0.0 0.00 0.10 0.00 96 1010.8
20260831121925 17 139 0.0 0.0 0.00 0.10 0.00 97 1010.9
20260831121156 16 160 0.0 0.0 0.00 0.10 0.00 98 1010.9
20260831121149 17 177 0.0 0.0 0.00 0.10 0.00 97 1011.0
20260831120415 16 140 0.0 0.0 0.00 0.10 0.00 98 1010.9
20260831115644 16 143 0.0 0.0 0.00 0.10 0.00 98 1011.1
20260831115143 16 120 0.0 0.0 0.00 0.10 0.00 98 1011.3
20260831114644 16 120 0.0 0.0 0.00 0.10 0.00 98 1011.1
20260831114143 16 120 0.0 0.0 0.00 0.10 0.00 99 1010.9
20260831113641 16 120 0.0 0.0 0.00 0.10 0.00 98 1011.1
20260831113127 16 120 0.0 0.0 0.00 0.10 0.00 98 1011.4